This is the latest recevied weather packets stored in our database for station/object KN6DHD. If no packets are shown the sender has not sent any weather packets the latest 10 day(s).
| Time | Temp. | Humidity | Pressure | Rain* | Wind** | Luminosity | Snow |
|---|---|---|---|---|---|---|---|
| 1778079355 | 15° C | 85% | 1021.3 hPa | 0 mm | - | 72 W/m² | - |
| 1778079052 | 14.44° C | 85% | 1021.3 hPa | 0 mm | - | 67 W/m² | - |
| 1778078748 | 14.44° C | 85% | 1021.2 hPa | 0 mm | - | 62 W/m² | - |
| 1778078445 | 14.44° C | 85% | 1021.1 hPa | 0 mm | - | 56 W/m² | - |
| 1778078143 | 14.44° C | 85% | 1021.4 hPa | 0 mm | - | 55 W/m² | - |
| 1778077841 | 14.44° C | 86% | 1021.3 hPa | 0 mm | - | 52 W/m² | - |
| 1778077539 | 14.44° C | 86% | 1021 hPa | 0 mm | - | 46 W/m² | - |
| 1778077237 | 14.44° C | 86% | 1020.9 hPa | 0 mm | - | 44 W/m² | - |
| 1778076934 | 14.44° C | 86% | 1021 hPa | 0 mm | - | 39 W/m² | - |
| 1778076633 | 14.44° C | 86% | 1020.9 hPa | 0 mm | - | 35 W/m² | - |
| 1778076329 | 14.44° C | 87% | 1020.9 hPa | 0 mm | - | 32 W/m² | - |
| 1778076027 | 14.44° C | 87% | 1021 hPa | 0 mm | - | 29 W/m² | - |
| 1778075724 | 13.89° C | 87% | 1020.8 hPa | 0 mm | - | 26 W/m² | - |
| 1778075420 | 13.89° C | 87% | 1020.7 hPa | 0 mm | - | 22 W/m² | - |
| 1778075116 | 13.89° C | 87% | 1020.7 hPa | 0 mm | - | 18 W/m² | - |
| 1778074812 | 13.89° C | 88% | 1020.6 hPa | 0 mm | - | 15 W/m² | - |
| 1778074510 | 13.89° C | 88% | 1020.8 hPa | 0 mm | - | 11 W/m² | - |
| 1778074206 | 13.89° C | 88% | 1020.5 hPa | 0 mm | - | 7 W/m² | - |
| 1778073903 | 13.89° C | 88% | 1020.6 hPa | 0 mm | - | 6 W/m² | - |
| 1778073601 | 13.89° C | 88% | 1020.6 hPa | 0 mm | - | 3 W/m² | - |
| 1778073298 | 13.89° C | 88% | 1020.6 hPa | 0 mm | - | 2 W/m² | - |
| 1778072994 | 13.89° C | 88% | 1020.7 hPa | 0 mm | - | 1 W/m² | - |
| 1778072691 | 13.89° C | 88% | 1020.6 hPa | 0 mm | - | 0 W/m² | - |
| 1778072389 | 13.89° C | 88% | 1020.5 hPa | 0 mm | - | 0 W/m² | - |
| 1778072087 | 13.89° C | 88% | 1020.4 hPa | 0 mm | - | 0 W/m² | - |
* Rain latest hour (hover to see other rain measurements)
** Current wind speed in m/s (hover to see current wind gust speed)